When you browse on this site, cookies collect data to enhance your experience and personalize the content and advertising you see.
Visit our Privacy Policy to learn more. By continuing to use the site, you agree to this use of cookies and data.
  • în România
  • Lista ţărilor
  • Pe 7 zile
  • Temperatura apei
  • Hartă satelitară
  • Meteo pe hartă
  • Widget-uri
  • user-avatar
    Intrare

    Meteo pe oră la Gopalganj

    Astăzi, 17 Februarie, Duminică

    Timp Temperatura Precipitaţii Vânt Presiune Umiditate
    00:00 +18°C° 0 mm 3 m/s 753 mmHg 85%
    01:00 +17°C° 0 mm 3 m/s 753 mmHg 86%
    02:00 +17°C° 0 mm 3 m/s 752 mmHg 88%
    03:00 +17°C° 0 mm 4 m/s 752 mmHg 89%
    04:00 +16°C° 0 mm 3 m/s 752 mmHg 91%
    05:00 +16°C° 0 mm 3 m/s 752 mmHg 93%
    06:00 +14°C° 0 mm 4 m/s 751 mmHg 95%
    07:00 +15°C° 0 mm 4 m/s 752 mmHg 91%
    08:00 +16°C° 0 mm 5 m/s 752 mmHg 86%
    09:00 +17°C° 0 mm 5 m/s 753 mmHg 82%
    10:00 +20°C° 0 mm 5 m/s 753 mmHg 72%
    11:00 +22°C° 0 mm 6 m/s 753 mmHg 62%
    12:00 +24°C° 0 mm 6 m/s 753 mmHg 51%
    13:00 +26°C° 0 mm 6 m/s 752 mmHg 49%
    14:00 +26°C° 0 mm 6 m/s 752 mmHg 47%
    15:00 +26°C° 0 mm 7 m/s 751 mmHg 45%
    16:00 +24°C° 0 mm 6 m/s 751 mmHg 51%
    17:00 +23°C° 0 mm 5 m/s 750 mmHg 57%
    18:00 +21°C° 0 mm 4 m/s 750 mmHg 63%
    19:00 +20°C° 0 mm 4 m/s 750 mmHg 67%
    20:00 +19°C° 0 mm 3 m/s 750 mmHg 71%
    21:00 +18°C° 0 mm 3 m/s 751 mmHg 74%
    22:00 +18°C° 0 mm 3 m/s 751 mmHg 75%
    23:00 +17°C° 0 mm 3 m/s 751 mmHg 76%

    Mâine, 18 Februarie, Luni

    Timp Temperatura Precipitaţii Vânt Presiune Umiditate
    00:00 +17°C° 0 mm 3 m/s 751 mmHg 77%
    01:00 +16°C° 0 mm 3 m/s 751 mmHg 78%
    02:00 +16°C° 0 mm 3 m/s 750 mmHg 79%
    03:00 +14°C° 0 mm 3 m/s 750 mmHg 80%
    04:00 +14°C° 0 mm 3 m/s 750 mmHg 81%
    05:00 +13°C° 0 mm 3 m/s 750 mmHg 82%
    06:00 +13°C° 0 mm 3 m/s 750 mmHg 83%
    07:00 +14°C° 0 mm 3 m/s 751 mmHg 80%
    08:00 +17°C° 0 mm 3 m/s 752 mmHg 76%
    09:00 +18°C° 0 mm 3 m/s 752 mmHg 72%
    10:00 +20°C° 0 mm 3 m/s 752 mmHg 65%
    11:00 +22°C° 0 mm 3 m/s 753 mmHg 58%
    12:00 +23°C° 0 mm 4 m/s 753 mmHg 51%
    13:00 +25°C° 0 mm 4 m/s 752 mmHg 48%
    14:00 +26°C° 0 mm 4 m/s 751 mmHg 44%
    15:00 +27°C° 0 mm 4 m/s 751 mmHg 40%
    16:00 +25°C° 0 mm 3 m/s 751 mmHg 45%
    17:00 +24°C° 0 mm 3 m/s 751 mmHg 51%
    18:00 +23°C° 0 mm 2 m/s 751 mmHg 56%
    19:00 +21°C° 0 mm 2 m/s 751 mmHg 56%
    20:00 +21°C° 0 mm 2 m/s 752 mmHg 57%
    21:00 +21°C° 0 mm 1 m/s 752 mmHg 58%
    22:00 +20°C° 0 mm 1 m/s 752 mmHg 61%
    23:00 +20°C° 0 mm 1 m/s 752 mmHg 64%

    Poimâine, 19 Februarie, Marţi

    Timp Temperatura Precipitaţii Vânt Presiune Umiditate
    00:00 +19°C° 0 mm 1 m/s 753 mmHg 67%
    01:00 +18°C° 0 mm 1 m/s 752 mmHg 69%
    02:00 +16°C° 0 mm 0 m/s 752 mmHg 71%
    03:00 +16°C° 0 mm 0 m/s 752 mmHg 74%
    04:00 +15°C° 0 mm 0 m/s 752 mmHg 75%
    05:00 +15°C° 0 mm 0 m/s 752 mmHg 77%
    06:00 +15°C° 0 mm 0 m/s 752 mmHg 79%
    07:00 +18°C° 0 mm 1 m/s 753 mmHg 73%
    08:00 +20°C° 0 mm 1 m/s 754 mmHg 68%
    09:00 +21°C° 0 mm 1 m/s 755 mmHg 63%
    10:00 +22°C° 0 mm 1 m/s 755 mmHg 59%
    11:00 +24°C° 0 mm 1 m/s 755 mmHg 55%
    12:00 +25°C° 0 mm 1 m/s 755 mmHg 52%
    13:00 +26°C° 0 mm 1 m/s 755 mmHg 47%
    14:00 +27°C° 0 mm 2 m/s 754 mmHg 43%
    15:00 +28°C° 0 mm 2 m/s 753 mmHg 39%
    16:00 +27°C° 0 mm 2 m/s 753 mmHg 43%
    17:00 +26°C° 0 mm 2 m/s 753 mmHg 47%
    18:00 +25°C° 0 mm 1 m/s 753 mmHg 50%
    19:00 +24°C° 0 mm 2 m/s 754 mmHg 53%
    20:00 +23°C° 0 mm 2 m/s 754 mmHg 55%
    21:00 +21°C° 0 mm 2 m/s 755 mmHg 57%
    22:00 +20°C° 0 mm 2 m/s 755 mmHg 61%
    23:00 +20°C° 0 mm 2 m/s 755 mmHg 65%

    20 Februarie, Miercuri

    Timp Temperatura Precipitaţii Vânt Presiune Umiditate
    00:00 +19°C° 0 mm 3 m/s 754 mmHg 69%
    01:00 +18°C° 0 mm 2 m/s 754 mmHg 72%
    02:00 +18°C° 0 mm 2 m/s 754 mmHg 75%
    03:00 +18°C° 0 mm 1 m/s 753 mmHg 78%
    04:00 +18°C° 0 mm 1 m/s 753 mmHg 78%
    05:00 +18°C° 0 mm 1 m/s 753 mmHg 78%
    06:00 +18°C° 0 mm 1 m/s 753 mmHg 78%
    07:00 +19°C° 0 mm 1 m/s 754 mmHg 74%
    08:00 +20°C° 0 mm 1 m/s 755 mmHg 69%
    09:00 +21°C° 0 mm 2 m/s 756 mmHg 65%
    10:00 +24°C° 0 mm 1 m/s 756 mmHg 57%
    11:00 +26°C° 0 mm 1 m/s 756 mmHg 49%
    12:00 +28°C° 0 mm 1 m/s 756 mmHg 42%
    13:00 +29°C° 0 mm 2 m/s 755 mmHg 39%
    14:00 +29°C° 0 mm 2 m/s 755 mmHg 37%
    15:00 +30°C° 0 mm 3 m/s 754 mmHg 34%
    16:00 +29°C° 0 mm 3 m/s 754 mmHg 40%
    17:00 +27°C° 0 mm 3 m/s 754 mmHg 45%
    18:00 +26°C° 0 mm 3 m/s 754 mmHg 51%
    19:00 +25°C° 0 mm 3 m/s 755 mmHg 55%
    20:00 +24°C° 0 mm 3 m/s 755 mmHg 58%
    21:00 +21°C° 0 mm 2 m/s 756 mmHg 62%
    22:00 +21°C° 0 mm 2 m/s 756 mmHg 65%
    23:00 +20°C° 0 mm 2 m/s 756 mmHg 67%

    21 Februarie, Joi

    Timp Temperatura Precipitaţii Vânt Presiune Umiditate
    00:00 +19°C° 0 mm 2 m/s 755 mmHg 70%
    01:00 +19°C° 0 mm 2 m/s 755 mmHg 69%
    02:00 +18°C° 0 mm 2 m/s 755 mmHg 68%
    03:00 +17°C° 0 mm 2 m/s 755 mmHg 67%
    04:00 +17°C° 0 mm 2 m/s 755 mmHg 67%
    05:00 +18°C° 0 mm 1 m/s 755 mmHg 67%
    06:00 +15°C° 0 mm 0 m/s 755 mmHg 67%
    07:00 +19°C° 0 mm 1 m/s 755 mmHg 63%
    08:00 +20°C° 0 mm 1 m/s 756 mmHg 59%
    09:00 +22°C° 0 mm 1 m/s 757 mmHg 55%
    10:00 +24°C° 0 mm 1 m/s 757 mmHg 49%
    11:00 +26°C° 0 mm 1 m/s 757 mmHg 44%
    12:00 +28°C° 0 mm 1 m/s 757 mmHg 39%
    13:00 +29°C° 0 mm 1 m/s 756 mmHg 36%
    14:00 +30°C° 0 mm 2 m/s 755 mmHg 33%
    15:00 +31°C° 0 mm 2 m/s 754 mmHg 31%
    16:00 +29°C° 0 mm 2 m/s 753 mmHg 35%
    17:00 +28°C° 0 mm 2 m/s 753 mmHg 40%
    18:00 +27°C° 0 mm 2 m/s 753 mmHg 44%
    19:00 +26°C° 0 mm 1 m/s 753 mmHg 46%
    20:00 +25°C° 0 mm 1 m/s 754 mmHg 48%
    21:00 +23°C° 0 mm 1 m/s 754 mmHg 50%
    22:00 +23°C° 0 mm 1 m/s 754 mmHg 52%
    23:00 +22°C° 0 mm 1 m/s 754 mmHg 53%

    22 Februarie, Vineri

    Timp Temperatura Precipitaţii Vânt Presiune Umiditate
    00:00 +22°C° 0 mm 1 m/s 753 mmHg 55%
    01:00 +21°C° 0 mm 1 m/s 753 mmHg 57%
    02:00 +21°C° 0 mm 1 m/s 753 mmHg 59%
    03:00 +20°C° 0 mm 1 m/s 753 mmHg 61%
    04:00 +20°C° 0 mm 1 m/s 753 mmHg 63%
    05:00 +20°C° 0 mm 1 m/s 753 mmHg 64%
    06:00 +19°C° 0 mm 1 m/s 753 mmHg 66%
    07:00 +21°C° 0 mm 1 m/s 753 mmHg 62%
    08:00 +22°C° 0 mm 1 m/s 754 mmHg 58%
    09:00 +24°C° 0 mm 1 m/s 754 mmHg 55%
    10:00 +26°C° 0 mm 1 m/s 754 mmHg 49%
    11:00 +28°C° 0 mm 2 m/s 754 mmHg 44%
    12:00 +30°C° 0 mm 2 m/s 753 mmHg 38%
    13:00 +31°C° 0 mm 3 m/s 753 mmHg 36%
    14:00 +33°C° 0 mm 3 m/s 752 mmHg 33%
    15:00 +34°C° 0 mm 4 m/s 751 mmHg 31%
    16:00 +33°C° 0 mm 4 m/s 751 mmHg 36%
    17:00 +30°C° 0 mm 3 m/s 750 mmHg 42%
    18:00 +28°C° 0 mm 3 m/s 750 mmHg 47%
    19:00 +27°C° 0 mm 3 m/s 751 mmHg 50%
    20:00 +26°C° 0 mm 3 m/s 751 mmHg 52%
    21:00 +24°C° 0 mm 3 m/s 752 mmHg 55%
    22:00 +23°C° 0 mm 2 m/s 752 mmHg 56%
    23:00 +23°C° 0 mm 2 m/s 752 mmHg 57%
    Arată mai mult